| time (UTC) | temp F | wind direction | speed MPH | gust MPH | rain 1hr in | rain 24hr in | rain mn in | humidity % | barometer mb |
| 20260507112023 | 69 | 0.0 | 0.0 | 0.00 | 0.00 | 0.00 | 52 | 1002.8 | |
| 20260507110022 | 69 | 0.0 | 0.0 | 0.00 | 0.00 | 0.00 | 53 | 1002.4 | |
| 20260507104021 | 69 | 0.0 | 0.0 | 0.00 | 0.00 | 0.00 | 53 | 1002.6 | |
| 20260507102019 | 69 | 0.0 | 0.0 | 0.00 | 0.00 | 0.00 | 54 | 1002.6 | |
| 20260507100018 | 69 | 0.0 | 0.0 | 0.00 | 0.00 | 0.00 | 55 | 1002.5 | |
| 20260507094017 | 69 | 0.0 | 0.0 | 0.00 | 0.00 | 0.00 | 56 | 1002.6 | |
| 20260507092016 | 69 | 0.0 | 0.0 | 0.00 | 0.00 | 0.00 | 55 | 1002.4 | |
| 20260507090014 | 69 | 0.0 | 0.0 | 0.00 | 0.00 | 0.00 | 56 | 1002.9 | |
| 20260507084013 | 69 | 0.0 | 0.0 | 0.00 | 0.00 | 0.00 | 56 | 1003.3 | |
| 20260507082012 | 69 | 0.0 | 0.0 | 0.00 | 0.00 | 0.00 | 56 | 1003.8 | |
| 20260507080011 | 69 | 0.0 | 0.0 | 0.00 | 0.00 | 0.00 | 57 | 1004.2 | |
| 20260507074009 | 69 | 0.0 | 0.0 | 0.00 | 0.00 | 0.00 | 58 | 1004.4 | |
| 20260507072008 | 69 | 0.0 | 0.0 | 0.00 | 0.00 | 0.00 | 59 | 1004.7 | |
| 20260507070010 | 69 | 0.0 | 0.0 | 0.00 | 0.00 | 0.00 | 59 | 1004.8 | |
| 20260507064006 | 69 | 0.0 | 0.0 | 0.00 | 0.00 | 0.00 | 59 | 1005.5 | |
| 20260507062004 | 69 | 0.0 | 0.0 | 0.00 | 0.00 | 0.00 | 59 | 1005.6 | |
| 20260507060003 | 69 | 0.0 | 0.0 | 0.00 | 0.00 | 0.00 | 59 | 1005.6 | |
| 20260507054002 | 69 | 0.0 | 0.0 | 0.00 | 0.00 | 0.00 | 59 | 1005.4 | |
| 20260507052001 | 69 | 0.0 | 0.0 | 0.00 | 0.00 | 0.00 | 59 | 1005.5 | |
| 20260507045959 | 69 | 0.0 | 0.0 | 0.00 | 0.00 | 0.00 | 59 | 1005.7 | |
| 20260507043958 | 69 | 0.0 | 0.0 | 0.00 | 0.00 | 0.00 | 58 | 1005.9 | |
| 20260507041957 | 69 | 0.0 | 0.0 | 0.00 | 0.00 | 0.00 | 58 | 1006.0 | |
| 20260507035955 | 69 | 0.0 | 0.0 | 0.00 | 0.00 | 0.00 | 58 | 1006.1 | |
| 20260507033954 | 69 | 0.0 | 0.0 | 0.00 | 0.00 | 0.00 | 57 | 1005.8 | |
| 20260507031953 | 69 | 0.0 | 0.0 | 0.00 | 0.00 | 0.00 | 57 | 1005.6 | |
| 20260507025952 | 69 | 0.0 | 0.0 | 0.00 | 0.00 | 0.00 | 56 | 1005.3 | |
| 20260507023950 | 69 | 0.0 | 0.0 | 0.00 | 0.00 | 0.00 | 56 | 1005.6 | |
| 20260507021949 | 69 | 0.0 | 0.0 | 0.00 | 0.00 | 0.00 | 56 | 1006.0 | |
| 20260507015948 | 69 | 0.0 | 0.0 | 0.00 | 0.00 | 0.00 | 56 | 1005.3 | |
| 20260507013947 | 69 | 0.0 | 0.0 | 0.00 | 0.00 | 0.00 | 56 | 1006.1 | |
| 20260507011945 | 69 | 0.0 | 0.0 | 0.00 | 0.00 | 0.00 | 56 | 1006.2 | |
| 20260507005944 | 70 | 0.0 | 0.0 | 0.00 | 0.00 | 0.00 | 57 | 1006.2 | |
| 20260507003943 | 70 | 0.0 | 0.0 | 0.00 | 0.00 | 0.00 | 57 | 1006.1 | |
| 20260507001942 | 70 | 0.0 | 0.0 | 0.00 | 0.00 | 0.00 | 57 | 1006.2 | |
| 20260506235940 | 70 | 0.0 | 0.0 | 0.00 | 0.00 | 0.00 | 57 | 1006.1 | |
| 20260506233939 | 70 | 0.0 | 0.0 | 0.00 | 0.00 | 0.00 | 58 | 1006.2 | |
| 20260506231938 | 70 | 0.0 | 0.0 | 0.00 | 0.00 | 0.00 | 58 | 1006.0 | |
| 20260506225936 | 70 | 0.0 | 0.0 | 0.00 | 0.00 | 0.00 | 58 | 1006.1 | |
| 20260506223935 | 70 | 0.0 | 0.0 | 0.00 | 0.00 | 0.00 | 58 | 1005.9 | |
| 20260506221934 | 70 | 0.0 | 0.0 | 0.00 | 0.00 | 0.00 | 58 | 1006.0 | |
| 20260506215933 | 70 | 0.0 | 0.0 | 0.00 | 0.00 | 0.00 | 58 | 1006.0 | |
| 20260506213931 | 70 | 0.0 | 0.0 | 0.00 | 0.00 | 0.00 | 57 | 1006.0 | |
| 20260506211930 | 70 | 0.0 | 0.0 | 0.00 | 0.00 | 0.00 | 58 | 1005.4 | |
| 20260506205929 | 71 | 0.0 | 0.0 | 0.00 | 0.00 | 0.00 | 58 | 1005.6 | |
| 20260506203928 | 71 | 0.0 | 0.0 | 0.00 | 0.00 | 0.00 | 58 | 1005.8 | |
| 20260506201926 | 71 | 0.0 | 0.0 | 0.00 | 0.00 | 0.00 | 57 | 1006.6 | |
| 20260506195925 | 71 | 0.0 | 0.0 | 0.00 | 0.00 | 0.00 | 57 | 1007.1 | |
| 20260506195313 | 71 | 0.0 | 0.0 | 0.00 | 0.00 | 0.00 | 58 | 1007.1 | |
| 20260506193312 | 71 | 0.0 | 0.0 | 0.00 | 0.00 | 0.00 | 58 | 1007.1 | |
| 20260506191310 | 72 | 0.0 | 0.0 | 0.00 | 0.00 | 0.00 | 58 | 1007.0 | |
| 20260506185308 | 72 | 0.0 | 0.0 | 0.00 | 0.00 | 0.00 | 58 | 1007.0 | |
| 20260506183307 | 71 | 0.0 | 0.0 | 0.00 | 0.00 | 0.00 | 60 | 1006.8 | |
| 20260506181304 | 71 | 0.0 | 0.0 | 0.00 | 0.00 | 0.00 | 60 | 1006.7 | |
| 20260506175306 | 71 | 0.0 | 0.0 | 0.00 | 0.00 | 0.00 | 61 | 1006.2 | |
| 20260506173302 | 70 | 0.0 | 0.0 | 0.00 | 0.00 | 0.00 | 62 | 1006.2 | |
| 20260506171300 | 70 | 0.0 | 0.0 | 0.00 | 0.00 | 0.00 | 62 | 1006.4 | |
| 20260506165259 | 70 | 0.0 | 0.0 | 0.00 | 0.00 | 0.00 | 62 | 1006.5 | |
| 20260506163258 | 70 | 0.0 | 0.0 | 0.00 | 0.00 | 0.00 | 62 | 1006.8 | |
| 20260506161257 | 71 | 0.0 | 0.0 | 0.00 | 0.00 | 0.00 | 63 | 1006.8 | |
| 20260506155255 | 71 | 0.0 | 0.0 | 0.00 | 0.00 | 0.00 | 63 | 1007.0 | |
| 20260506153254 | 71 | 0.0 | 0.0 | 0.00 | 0.00 | 0.00 | 63 | 1007.2 | |
| 20260506151253 | 71 | 0.0 | 0.0 | 0.00 | 0.00 | 0.00 | 65 | 1007.0 | |
| 20260506145251 | 72 | 0.0 | 0.0 | 0.00 | 0.00 | 0.00 | 65 | 1007.5 | |
| 20260506143250 | 72 | 0.0 | 0.0 | 0.00 | 0.00 | 0.00 | 63 | 1006.5 | |
| 20260506141249 | 72 | 0.0 | 0.0 | 0.00 | 0.00 | 0.00 | 64 | 1006.6 | |
| 20260506135248 | 72 | 0.0 | 0.0 | 0.00 | 0.00 | 0.00 | 62 | 1006.6 | |
| 20260506133246 | 72 | 0.0 | 0.0 | 0.00 | 0.00 | 0.00 | 60 | 1006.4 | |
| 20260506131245 | 72 | 0.0 | 0.0 | 0.00 | 0.00 | 0.00 | 60 | 1006.8 | |
| 20260506125244 | 72 | 0.0 | 0.0 | 0.00 | 0.00 | 0.00 | 60 | 1007.2 | |
| 20260506123243 | 72 | 0.0 | 0.0 | 0.00 | 0.00 | 0.00 | 59 | 1007.2 | |
| 20260506121241 | 72 | 0.0 | 0.0 | 0.00 | 0.00 | 0.00 | 50 | 1007.2 | |
| 20260506115240 | 72 | 0.0 | 0.0 | 0.00 | 0.00 | 0.00 | 50 | 1007.1 |